Location: Peebles
(55.6412°N, 3.1714°W)
Time: 06:29:19
(UTC+01:00)

deb Agena D - Visible Passes

Search period start: 16 September 2024 00:00
Search period end: 26 September 2024 00:00
Orbit: 793 x 977 km, 99.8° (Epoch: 14 September)

Date Brightness Start Highest point End Pass type
(mag) Time Alt. Az. Time Alt. Az. Time Alt. Az.
16 Sep 7.7 02:27:43 10° NE 02:32:31 29° E 02:33:38 27° ESE visible
16 Sep 6.3 04:08:43 10° NNE 04:14:13 67° WNW 04:16:22 38° SW visible
16 Sep 7.9 05:50:58 10° N 05:54:41 19° NW 05:58:31 10° W visible
17 Sep 7.7 02:25:56 10° NE 02:30:43 28° E 02:31:45 26° ESE visible
17 Sep 6.3 04:06:54 10° NNE 04:12:26 69° WNW 04:14:29 40° SW visible
17 Sep 7.8 05:49:07 10° N 05:52:56 19° NW 05:56:51 10° W visible
18 Sep 7.7 02:24:09 10° NE 02:28:53 27° E 02:29:53 26° ESE visible
18 Sep 6.3 04:05:05 10° NNE 04:10:39 71° WNW 04:12:36 42° SW visible
18 Sep 7.8 05:47:16 10° N 05:51:10 20° NW 05:55:11 10° W visible
19 Sep 7.8 02:22:22 10° NE 02:27:04 26° E 02:27:59 25° ESE visible
19 Sep 6.3 04:03:16 10° NNE 04:08:51 73° WNW 04:10:42 44° SW visible
19 Sep 7.8 05:45:25 10° N 05:49:25 21° NW 05:53:26 10° W visible
20 Sep 7.8 02:20:35 10° NE 02:25:15 26° E 02:26:05 25° ESE visible
20 Sep 6.3 04:01:26 10° NNE 04:07:04 75° WNW 04:08:48 47° SW visible
20 Sep 7.7 05:43:33 10° N 05:47:38 21° NW 05:51:32 11° W visible
21 Sep 7.9 02:18:47 10° NE 02:23:26 25° E 02:24:11 24° ESE visible
21 Sep 6.2 03:59:37 10° NNE 04:05:16 77° WNW 04:06:55 49° SW visible
21 Sep 7.7 05:41:42 10° N 05:45:51 22° NW 05:49:38 12° W visible
22 Sep 7.9 02:17:00 10° NE 02:21:36 24° E 02:22:18 24° ESE visible
22 Sep 6.2 03:57:47 10° NNE 04:03:27 80° WNW 04:05:01 51° SW visible
22 Sep 7.7 05:39:51 10° N 05:44:05 22° NW 05:47:44 13° W visible
23 Sep 8.0 02:15:12 10° NE 02:19:46 24° E 02:20:23 23° E visible
23 Sep 6.2 03:55:57 10° NNE 04:01:39 82° WNW 04:03:07 53° SSW visible
23 Sep 7.7 05:37:59 10° N 05:42:18 23° NW 05:45:49 14° W visible
24 Sep 8.0 02:13:25 10° NE 02:17:56 23° E 02:18:29 23° E visible
24 Sep 6.3 03:54:07 10° NNE 03:59:51 84° WNW 04:01:12 56° SSW visible
24 Sep 7.6 05:36:07 10° N 05:40:31 24° NW 05:43:55 14° W visible
25 Sep 8.1 02:11:38 10° NE 02:16:06 22° E 02:16:34 22° E visible
25 Sep 6.3 03:52:16 10° NNE 03:58:02 87° WNW 03:59:17 58° SSW visible
25 Sep 7.6 05:34:15 10° N 05:38:44 24° NW 05:42:01 15° W visible
